#timestamp,LO_Frequency,Hit,StdDev 
1510452015.2,286047003.1,P
1510452035.0,286047005.7,P
1510452035.9,286047005.7,P
1510452055.8,286047004.2,Y
1510452075.6,286046999.2,P
1510452095.4,286046998.3,N
1510452115.3,286047001.0,N
1510452135.1,286047000.9,N
1510452136.0,286047000.9,N
1510452155.8,286046998.5,N
1510452175.7,286047001.1,N
1510452195.5,286047002.8,N
1510452215.3,286047003.0,N
1510452235.2,286047003.3,N
1510452255.9,286047003.8,N
1510452275.7,286047005.4,N
1510452295.5,286047005.9,N
1510452315.4,286047007.6,Y
1510452335.2,286047006.0,P
1510452355.0,286047004.6,N
1510452356.0,286047004.6,N
1510452375.8,286047004.6,Y
1510452395.6,286047002.1,P
1510452415.5,286046998.5,N
1510452435.3,286047000.2,N
1510452455.1,286047004.0,N
1510452475.8,286047002.1,N
1510452495.7,286047003.3,N
1510452515.5,286047005.1,N
1510452535.3,286047003.6,N
1510452555.2,286047003.2,N
1510452575.9,286047002.8,N
1510452595.7,286047000.7,N
1510452615.6,286047001.4,N
1510452635.4,286047003.4,N
1510452655.2,286047006.9,Y
1510452675.1,286047005.8,P
1510452676.0,286047005.8,P
1510452695.8,286047005.6,P
1510452715.6,286047007.6,Y
1510452735.5,286047001.4,P
1510452755.3,286047003.6,N
1510452775.1,286047003.5,N
1510452795.9,286047002.4,N
1510452815.7,286046999.0,N
1510452835.5,286046998.4,N
1510452855.4,286047000.7,N
1510452875.2,286046999.2,N
1510452895.0,286046996.7,N
1510452895.9,286046996.7,N
1510452915.8,286047002.0,N
1510452935.6,286047003.7,N
1510452955.4,286047004.1,N
1510452975.2,286047004.1,N
1510452995.1,286047003.2,N
1510452996.0,286047003.2,N
1510453015.8,286047004.5,N
1510453035.6,286047004.9,N
1510453055.5,286047003.0,N
1510453075.3,286047005.7,N
1510453095.1,286047006.2,N
1510453115.9,286047004.6,N
1510453135.7,286047005.6,N
1510453155.5,286047007.2,N
1510453175.4,286047003.6,N
1510453195.2,286047000.5,N
1510453215.0,286047000.0,N
1510453215.9,286047000.0,N
1510453235.8,286047001.2,N
1510453255.6,286046999.1,N
1510453275.4,286046996.7,N
1510453295.2,286046998.6,N
1510453315.1,286046996.5,N
1510453316.0,286046996.5,N
1510453335.8,286046999.6,N
1510453355.6,286046999.3,N
1510453375.5,286046998.4,N
1510453395.3,286046997.4,N
1510453415.1,286046996.1,N
1510453435.9,286046993.7,N
1510453455.7,286046999.2,N
1510453475.5,286046998.7,N
1510453495.4,286046999.0,N
1510453515.2,286046996.5,N
1510453535.0,286046996.9,N
1510453535.9,286046996.9,N
1510453555.8,286046999.1,N
1510453575.6,286046999.8,N
1510453595.4,286047000.5,N
1510453615.2,286047002.0,N
1510453635.1,286047001.8,N
1510453636.0,286047001.8,N
1510453655.8,286047000.5,N
1510453675.6,286046998.3,N
1510453695.5,286046998.0,N
1510453715.3,286046995.2,N
1510453735.1,286046994.6,N
1510453755.9,286046995.2,N
1510453775.7,286046996.0,N
1510453795.5,286046996.0,N
1510453815.4,286046991.7,Y
1510453835.2,286046994.2,P
1510453855.0,286046993.9,P
1510453855.9,286046993.9,P
1510453875.8,286046998.5,N
1510453895.6,286047000.6,N
1510453915.4,286046999.5,N
1510453935.3,286046997.5,N
1510453955.1,286046995.3,N
1510453956.0,286046995.3,N
1510453975.8,286046997.3,N
1510453995.7,286046998.7,N
1510454015.5,286046997.1,N
1510454035.3,286046999.6,N
1510454055.1,286047000.8,N
1510454075.9,286047000.2,N
1510454095.7,286047005.6,N
1510454115.5,286047004.7,N
1510454135.4,286047005.4,N
1510454155.2,286047002.9,N
1510454175.0,286047006.8,N
1510454175.9,286047006.8,N
1510454195.8,286047004.6,N
1510454215.6,286047004.8,N
1510454235.4,286047001.6,N
1510454255.3,286047004.3,N
1510454275.1,286047007.5,N
1510454276.0,286047007.5,N
1510454295.8,286047006.0,N
1510454315.7,286047007.1,N
1510454335.5,286047005.4,N
1510454355.3,286047003.4,N
1510454375.2,286047002.9,N
1510454395.9,286047004.6,N
1510454415.7,286047008.3,N
1510454435.5,286047008.3,N
1510454455.4,286047010.0,N
1510454475.2,286047011.9,N
1510454495.0,286047011.3,N
1510454495.9,286047011.3,N
1510454515.8,286047011.1,N
1510454535.6,286047014.7,Y
1510454555.4,286047010.2,P
1510454575.3,286047006.6,N
1510454595.1,286047009.2,P
1510454615.8,286047007.1,Y
1510454635.7,286047002.3,P
1510454655.5,286046996.6,N
1510454675.3,286046999.4,N
1510454695.2,286046997.6,N
1510454715.0,286046998.0,N
1510454715.9,286046998.0,N
1510454735.7,286046997.0,N
1510454755.6,286046995.2,N
1510454775.4,286046994.6,N
1510454795.2,286046995.9,N
1510454815.1,286046995.9,N
1510454816.0,286046995.9,N
1510454835.8,286046995.7,N
1510454855.6,286046995.1,N
1510454875.5,286046997.8,N
1510454895.3,286047002.8,N
1510454915.1,286047004.0,N
1510454935.9,286047003.2,N
1510454955.7,286047002.0,N
1510454975.5,286047002.1,N
1510454995.3,286047001.3,N
1510455015.2,286047002.8,N
1510455035.0,286047002.6,N
1510455035.9,286047002.6,N
1510455055.7,286047004.3,N
1510455075.6,286047000.3,N
1510455095.4,286046999.2,N
1510455115.2,286047000.8,N
1510455135.1,286046995.7,N
1510455136.0,286046995.7,N
1510455155.8,286046997.0,N
1510455175.6,286046990.2,Y
1510455195.5,286046990.9,P
1510455215.3,286046989.7,N
1510455235.1,286046988.2,N
1510455255.9,286046987.7,N
1510455275.7,286046987.9,N
1510455295.5,286046985.3,Y
1510455315.4,286046996.4,P
1510455335.2,286046995.3,N
1510455355.0,286046994.9,N
1510455355.9,286046994.9,N
1510455375.8,286046993.4,Y
1510455395.6,286047004.4,P
1510455415.4,286047000.3,N
1510455435.3,286046999.1,N
1510455455.1,286046999.5,N
1510455456.0,286046999.5,N
1510455475.8,286046999.4,N
1510455495.7,286046995.9,N
1510455515.5,286046997.6,N
1510455535.3,286046995.5,N
1510455555.1,286046997.2,N
1510455575.9,286046998.7,N
1510455595.7,286047001.2,N
